Погода Завитая

Погода Завитая : погода сейчас, прогноз погоды и архив. Всё, что Вы хотите узнать о погоде Завитая!

Поиск расширенной информации на нашем сайте:

Другие новости

Новости СМИ2

Главная страница сайта

Новости сайта

03.07.2017

Напоминаем, что на нашем специализированном сайте Метеоцентр.Азия вы можете получить высокодетализированные автоматические прогнозы погоды по пунктам России, СНГ и мира в авиационном формате (включающие направление и скорость ветра, видимость, явления погоды, количество и форму облачности, нижнюю и верхнюю границу облачности).


Погода Завитая - сегодня

Время (UTC), дата Ветер
(°,м/с) 
Видим.   Явления Облачность Т
(°С)
Тd
(°С)
f(%) Тe
(°С)
Pmin
(гПа)
dP
(гПа)
Po
(мм)
O2
(г/м3)
Тmin Tmax R s Состояние
почвы
06 21.11.17 130 (ЮВ) 4000 м  слаб. снег  10/0 средняя 
[As op]
-10.3 -13.4 78 -13  1011.9  -1.4  736  309           
09 21.11.17 120 (ЮВ) 4000 м  слаб. снег  10/0 средняя 
[As op]
-10.7 -13.2 82 -14  1011.6  -0.4  735  310           
12 21.11.17 110 (В) 4000 м  слаб. снег  10/0 средняя 
[As op]
-10.2 -12.4 84 -12  1010.6  -0.9  735  309    -9.6     
15 21.11.17 070 (В) 4000 м  слаб. снег  10/0 средняя 
[As op]
-10.7 -12.9 84 -11  1009.3  -1.3  734  309           
18 21.11.17 050 (СВ) 4000 м  слаб. снег  10/0 средняя 
[As op]
-11.9 -14.4 82 -14  1008.9  -0.5  733  310           
21 21.11.17 030 (СВ) 20000 м  {снег}  4/0 верхняя 
[Ci fib]
-13.6 -16 82 -16  1008.7  -0.4  733  312           
00 22.11.17 340 (С) 20000 м  {снег}  10/0 средняя 
[As op]
-13.3 -16.2 79 -15  1009.9  1.2  734  312  -15.8    равномерный
сухой снег
100% 
03 22.11.17 340 (С) 20000 м    ясно 
-12 -17.2 65 -15  1010.2  0.5  734  311           
06 22.11.17 350 (С) 20000 м    ясно 
-11.8 -21.6 44 -16  1011.2  0.9  735  311           
09 22.11.17 300 (СЗ) 20000 м    ясно 
-15.5 -21 63 -18  1013  1.4  736  316           
12 22.11.17 340 (С) 20000 м    ясно 
-19.4 -22.7 75 -20  1014  0.5  737  321    -11.4       
15 22.11.17 300 (СЗ) 20000 м    ясно 
-20.6 -23.6 77 -21  1014.3  737  323           
18 22.11.17 тихо ()   20000 м    ясно 
-22.8 -26 75 -23  1014.7  0.2  737  326           
21 22.11.17 230 (ЮЗ) 20000 м    ясно 
-23.4 -26.4 76 -24  1014.5  -0.2  737  326           
00 23.11.17 330 (СЗ) 4000 м  слаб. снег  10/0 средняя 
[As op]
-21.6 -24.8 75 -22  1015.1  0.6  737  324  -25    0.0  равномерный
сухой снег
100% 
03 23.11.17 350 (С) 20000 м  {снег}  8/0 средняя 
[Ac trans]
-14.5 -20.4 61 -17  1014.1  737  315           
06 23.11.17 310 (СЗ) 20000 м  {снег}  1/0 верхняя 
[Ci fib]
-14.5 -23.4 47 -19  1014.1  737  315           
09 23.11.17 300 (СЗ) 20000 м    1/0 верхняя 
[Ci fib]
-18.4 -25.2 55 -21  1016.2  1.6  738  321           
12 23.11.17 260 (З) 20000 м    ясно 
-21.4 -25.7 68 -22  1016.9  0.3  738  325    -13.9  0.0     
15 23.11.17 270 (З) 20000 м    ясно 
-22.1 -26.7 66 -22  1016.4  -0.6  738  325           
18 23.11.17 280 (З) 20000 м    ясно 
-23.5 -27.6 69 -24  1016.1  -0.4  738  327           
21 23.11.17 280 (З) 20000 м    ясно 
-24.7 -28.8 69 -25  1016  -0.4  737  328           
00 24.11.17 250 (З) 20000 м    ясно 
-24.2 -29.2 63 -25  1016.8  0.9  738  328  -25.4      равномерный
сухой снег
100% 
03 24.11.17 290 (З) 20000 м    ясно 
-18.8 -26.9 49 -23  1015.9  -0.2  738  321           
06 24.11.17 300 (СЗ) 20000 м    ясно 
-18.4 -27.9 43 -25  1015.9  -0.1  738  321           
Время (UTC), дата Ветер
(°,м/с) 
Видим.   Явления Облачность Т
(°С)
Тd
(°С)
f(%) Тe
(°С)
Pmin
(гПа)
dP
(гПа)
Po
(мм)
O2
(г/м3)
Тmin Tmax R s Состояние
почвы

Для получения пояснительной информации подведите курсор к названию столбца.

ПОГОДА Завитая - архив

Всё, что Вы хотите узнать о погоде Завитая - удобно и подробно!

Выберите нужную дату (начиная с 1 января 2015* года) и нажмите кнопку "Найти".
Будут отображены архивные сводки погоды по пункту Завитая, начиная с указанной даты.


Отображать данные в формате CSV (для использования в таблицах Excel)


Внимание! Наш архив погоды предназначен исключительно для личного некоммерческого использования в познавательных целях. Если Вам необходимы официальные справки о состоянии погоды (для производственных, юридических, коммерческих и т.п. целей), обращайтесь в органы Росгидромета.

*Примечание: данная дата относится к архиву по метеостанциям СССР (Россия, СНГ, Балтия).
Архив по метеостанциям Зарубежной Европы и Азии (кроме Китая) хранится 10 дней, по другим регионам земного шара (Китай, Африка, Америка, Австралия, Океания) - 1 день.

Завитая - район местоположения метеостанции


Название, широта, долгота, высота метеостанции:
Завитая 50.1°ш. 129.5°д. 241 м над ур. моря [Российская Федерация]

Дополнительная информация

В oтличие oт бoльшинства пoгoдных сайтoв мы публикуем пoдрoбную метеoинфoрмацию в детальнoм прoфессиoнальнoм фoрмате.

Характеристики температуры и влажнoсти вoздуха измеряются на высoте 2 м в тени вдали oт зданий и деревьев.
Скoрoсть ветра измеряется на высoте 10 м (на урoвне рoста челoвека скoрoсть ветра ниже в 1.5-2 раза). Если метеoстанция нахoдится в гoрoде или в лесу, тo скoрoсть ветра занижена на 2-4 м/с пo сравнению с oткрытым местoм. Скoрoсть ветра над акватoриями крупных рек и oзёр, а также на вершинах хoлмoв на 2-5 м/с выше, чем в oбычных услoвиях.
Атмoсфернoе давление в разных тoчках местнoсти мoжет значительнo oтличаться oт давления на метеoстанции, в зависимoсти oт услoвий рельефа (при пoдъёме на 10 м давление пoнижается примернo на 1 мм рт.ст.).